Location: Ayer Observatory
(42.2600°N, 71.0700°W)
Time: 09:02:38
(UTC-04:00)

XW-2A - Pass Details

Date: 14 August 2020
Orbit: 428 x 443 km, 97.3° (Epoch: 21 September)

Event Time Altitude Azimuth Distance (km) Brightness Sun altitude
Exits shadow 21:11:31 21° 172° (S) 1,017 ? -14.9°
Maximum altitude 21:13:34 81° 259° (W) 440 ? -15.2°
Drops below altitude 10° 21:16:51 10° 346° (NNW) 1,534 ? -15.7°
Sets 21:18:53 0° 347° (NNW) 2,407 ? -16.0°
